Orbital Elements at Epoch 2459200.5 (2020-Dec-17.0) TDB
Reference: JPL 22 (heliocentric ecliptic J2000)
Element | Value | Uncertainty (1-sigma) | Units |
e | .1721904913289016 | 5.9703e-08 | |
a | 2.760020965748986 | 1.4855e-08 | au |
q | 2.284771599578599 | 1.645e-07 | au |
i | 6.060902112328836 | 6.2015e-06 | deg |
node | 64.38826272182675 | 4.1882e-05 | deg |
peri | 313.4785686750595 | 4.3705e-05 | deg |
M | 271.8309077239471 | 1.5416e-05 | deg |
tp | 2459610.686032033895 (2022-Jan-31.18603203) | 7.3555e-05 | TDB |
period | 1674.815603974515 4.59 | 1.3521e-05 3.702e-08 | d yr |
n | .2149490362674445 | 1.7353e-09 | deg/d |
Q | 3.235270331919374 | 1.7412e-08 | au |
|
| | Orbit Determination Parameters
Additional Information
|